Location: Boal's Trailer Park
(41.0425°N, 81.4208°W)
Time: 04:35:05
(UTC+00:00)

Daily predictions for brighter satellites

Satellite Brightness Start Highest point End
(mag) Time Altitude Azimuth Time Altitude Azimuth Time Altitude Azimuth
Cosmos 1943 Rocket 3.1 01:18:24 10° SSE 01:22:57 27° ESE 01:27:32 10° NE
SPOT 3 Rocket 3.7 01:18:03 10° SSE 01:23:05 58° ENE 01:28:10 10° N
STARLINK-1128 4.4 01:20:50 10° NW 01:24:51 46° NNE 01:28:50 10° ESE
Abrixas rocket 1.9 01:22:25 10° WNW 01:25:23 78° NNE 01:28:19 10° ESE
Cosmos 2151 Rocket 3.9 01:23:32 10° N 01:27:58 52° E 01:32:22 10° SSE
Okean 3 3.7 01:23:57 10° SSW 01:28:15 77° W 01:32:34 10° N
STARLINK-1113 4.2 01:25:49 10° NW 01:29:52 49° NNE 01:33:54 10° ESE
H-2A R/B 3.3 01:25:06 10° S 01:29:54 42° W 01:34:53 10° NNW
NOSS 2-2 (D) 3.0 01:27:33 10° SSW 01:31:05 70° ESE 01:34:50 10° NE
STARLINK-1119 4.1 01:30:46 10° NW 01:34:50 54° NNE 01:38:54 10° ESE
SL-4 R/B 3.9 01:33:48 10° W 01:35:07 13° WSW 01:36:23 10° SW
Cosmos 1833 Rocket 3.7 01:30:05 10° NW 01:35:23 44° WSW 01:40:40 10° S
Resurs 1-3 3.6 01:31:46 10° SSE 01:36:08 69° ENE 01:40:30 10° N
STARLINK-1114 4.0 01:35:45 10° NW 01:39:51 58° NE 01:43:56 10° ESE
BREEZE-M DEB 2.1 01:38:02 10° SW 01:40:04 43° SE 01:42:59 10° ENE
STARLINK-1444 1.8 01:38:27 10° SW 01:40:27 54° SE 01:42:27 10° ENE
STARLINK-1452 1.7 01:39:04 10° SW 01:41:04 56° SE 01:43:04 10° ENE
STARLINK-1450 1.6 01:40:21 10° SW 01:42:18 58° SE 01:44:14 10° ENE
STARLINK-1436 (VISORSAT) 1.6 01:40:24 10° SW 01:42:22 59° SE 01:44:20 10° ENE
STARLINK-1392 1.6 01:40:29 10° SW 01:42:25 59° SE 01:44:22 10° ENE
STARLINK-1414 1.6 01:40:28 10° SW 01:42:25 59° SE 01:44:24 10° ENE
STARLINK-1398 1.7 01:40:27 10° SW 01:42:25 59° SE 01:44:24 10° ENE
STARLINK-1399 1.6 01:40:29 10° SW 01:42:26 59° SE 01:44:22 10° ENE
STARLINK-1415 1.6 01:40:30 10° SW 01:42:26 59° SE 01:44:23 10° ENE
STARLINK-1416 1.6 01:40:28 10° SW 01:42:26 59° SE 01:44:25 10° ENE
STARLINK-1394 1.6 01:40:30 10° SW 01:42:27 59° SE 01:44:23 10° ENE
STARLINK-1395 1.6 01:40:30 10° SW 01:42:27 59° SE 01:44:24 10° ENE
STARLINK-1393 1.6 01:40:31 10° SW 01:42:27 59° SE 01:44:24 10° ENE
STARLINK-1396 1.6 01:40:31 10° SW 01:42:27 59° SE 01:44:24 10° ENE
STARLINK-1408 1.6 01:40:30 10° SW 01:42:27 59° SE 01:44:26 10° ENE
STARLINK-1397 1.6 01:40:31 10° SW 01:42:27 59° SE 01:44:24 10° ENE
STARLINK-1401 1.6 01:40:31 10° SW 01:42:27 59° SE 01:44:25 10° ENE
STARLINK-1419 1.6 01:40:30 10° SW 01:42:28 59° SE 01:44:27 10° ENE
STARLINK-1404 1.6 01:40:32 10° SW 01:42:28 59° SE 01:44:25 10° ENE
STARLINK-1453 1.6 01:40:32 10° SW 01:42:29 59° SE 01:44:26 10° ENE
STARLINK-1402 1.6 01:40:34 10° SW 01:42:30 59° SE 01:44:27 10° ENE
STARLINK-1417 1.6 01:40:34 10° SW 01:42:30 59° SE 01:44:27 10° ENE
STARLINK-1420 1.6 01:40:33 10° SW 01:42:31 59° SE 01:44:30 10° ENE
STARLINK-1413 1.6 01:40:35 10° SW 01:42:31 59° SE 01:44:28 10° ENE
STARLINK-1406 1.6 01:40:35 10° SW 01:42:32 59° SE 01:44:28 10° ENE
STARLINK-1422 1.6 01:40:34 10° SW 01:42:32 59° SE 01:44:31 10° ENE
STARLINK-1460 1.6 01:40:34 10° SW 01:42:33 59° SE 01:44:31 10° ENE
STARLINK-1440 1.6 01:40:37 10° SW 01:42:33 59° SE 01:44:30 10° ENE
STARLINK-1458 1.6 01:40:35 10° SW 01:42:34 59° SE 01:44:32 10° ENE
STARLINK-1445 1.6 01:40:37 10° SW 01:42:34 59° SE 01:44:31 10° ENE
STARLINK-1443 1.6 01:40:38 10° SW 01:42:35 59° SE 01:44:31 10° ENE
STARLINK-1454 1.6 01:40:38 10° SW 01:42:35 59° SE 01:44:32 10° ENE
STARLINK-1457 1.6 01:40:39 10° SW 01:42:36 59° SE 01:44:32 10° ENE
STARLINK-1456 1.6 01:40:40 10° SW 01:42:37 59° SE 01:44:33 10° ENE
STARLINK-1437 1.6 01:40:39 10° SW 01:42:37 59° SE 01:44:35 10° ENE
STARLINK-1451 1.6 01:40:40 10° SW 01:42:37 59° SE 01:44:33 10° ENE
STARLINK-1446 1.6 01:40:38 10° SW 01:42:37 59° SE 01:44:36 10° ENE
STARLINK-1442 1.6 01:40:40 10° SW 01:42:38 59° SE 01:44:34 10° ENE
STARLINK-1447 1.6 01:40:40 10° SW 01:42:40 60° SE 01:44:39 10° ENE
STARLINK-1423 1.6 01:40:41 10° SW 01:42:40 60° SE 01:44:38 10° ENE
STARLINK-1405 1.6 01:40:43 10° SW 01:42:40 59° SE 01:44:36 10° ENE
STARLINK-1421 1.6 01:40:43 10° SW 01:42:40 59° SE 01:44:37 10° ENE
STARLINK-1455 1.6 01:40:41 10° SW 01:42:40 60° SE 01:44:39 10° ENE
STARLINK-1400 1.6 01:40:44 10° SW 01:42:41 59° SE 01:44:37 10° ENE
STARLINK-1410 1.6 01:40:44 10° SW 01:42:41 59° SE 01:44:37 10° ENE
STARLINK-1441 1.6 01:40:42 10° SW 01:42:41 60° SE 01:44:41 10° ENE
STARLINK-1407 1.6 01:40:44 10° SW 01:42:41 59° SE 01:44:38 10° ENE
STARLINK-1439 1.6 01:40:45 10° SW 01:42:42 59° SE 01:44:38 10° ENE
STARLINK-1409 1.6 01:40:45 10° SW 01:42:42 59° SE 01:44:39 10° ENE
STARLINK-1448 1.6 01:40:43 10° SW 01:42:42 60° SE 01:44:41 10° ENE
STARLINK-1449 1.7 01:40:43 10° SW 01:42:42 60° SE 01:44:41 10° ENE
STARLINK-1351 1.6 01:40:46 10° SW 01:42:43 59° SE 01:44:40 10° ENE
STARLINK-1370 1.6 01:40:46 10° SW 01:42:43 59° SE 01:44:40 10° ENE
Cosmos 1674 Rocket 3.7 01:38:26 10° S 01:42:43 58° E 01:47:04 10° NNE
STARLINK-1418 1.6 01:40:47 10° SW 01:42:43 59° SE 01:44:40 10° ENE
STARLINK-1434 1.6 01:40:47 10° SW 01:42:43 59° SE 01:44:40 10° ENE
STARLINK-1403 1.6 01:40:47 10° SW 01:42:44 60° SE 01:44:41 10° ENE
STARLINK-1433 1.6 01:40:49 10° SW 01:42:46 60° SE 01:44:42 10° ENE
STARLINK-1411 1.6 01:40:50 10° SW 01:42:47 60° SE 01:44:43 10° ENE
STARLINK-1438 1.6 01:40:50 10° SW 01:42:47 60° SE 01:44:44 10° ENE
STARLINK-1412 1.6 01:40:51 10° SW 01:42:50 60° SE 01:44:50 10° ENE
Cosmos 1378 Rocket 4.0 01:38:45 10° SSE 01:42:54 43° E 01:47:03 10° NNE
STARLINK-1130 (DARKSAT) 3.9 01:40:42 10° NW 01:44:49 63° NE 01:48:42 11° ESE
Cosmos 2297 3.8 01:41:39 10° SSW 01:47:20 84° WNW 01:53:06 10° NNE
NOSS 2-2 (E) 3.8 01:43:54 10° SW 01:47:24 58° NW 01:51:14 10° NNE
Meteor 1-12 Rocket 4.5 01:42:05 10° NNW 01:47:45 76° W 01:53:30 10° S
Cosmos 2279 Rocket 4.0 01:43:27 10° N 01:49:43 88° E 01:55:55 10° S
STARLINK-1084 3.8 01:45:41 10° NW 01:49:49 69° NE 01:53:29 13° ESE
NOSS 3-4 (A) 4.4 01:46:30 10° SSE 01:50:59 23° ESE 01:55:34 10° ENE
NOSS 3-4 (C) 4.4 01:46:39 10° SSE 01:51:05 22° ESE 01:55:39 10° ENE
Cosmos 2082 Rocket 2.8 01:45:57 10° NNW 01:51:31 55° WSW 01:57:01 10° S
STARLINK-29 3.0 01:49:19 10° SW 01:52:28 51° SE 01:55:37 10° ENE
STARLINK-1098 3.7 01:50:38 10° NW 01:54:47 75° NE 01:58:15 14° ESE
SL-8 R/B 3.8 01:50:01 10° WNW 01:54:49 80° NNE 01:59:08 13° ESE
ISS -1.2 01:53:25 10° WSW 01:54:59 13° SW 01:56:34 10° SSW
Cosmos 2369 Rocket 2.8 01:50:04 10° S 01:55:10 36° ESE 02:00:16 10° NE
MetOp-B 4.5 01:53:24 11° SE 01:58:17 52° ENE 02:03:29 10° N
STARLINK-1123 3.6 01:55:37 10° NW 01:59:46 82° NE 02:03:03 16° SE
ERS-1 Rocket 4.4 01:59:13 12° ESE 02:02:41 24° ENE 02:06:38 10° NNE
STARLINK-1097 3.6 02:00:35 10° NW 02:04:44 89° NE 02:07:49 17° SE
Meteor 1-15 Rocket 4.3 01:58:58 10° N 02:04:54 73° ENE 02:10:28 11° SSE
Cosmos 1378 3.5 02:02:57 13° SSE 02:06:02 43° E 02:09:34 10° NNE
Cosmos 1975 Rocket 4.1 02:05:35 16° SE 02:08:09 27° E 02:11:51 10° NNE
Lacrosse 5 3.9 02:05:25 10° WNW 02:08:58 19° WSW 02:12:31 10° SSW
STARLINK-1099 3.6 02:05:34 10° NW 02:09:43 83° SW 02:12:36 19° SE
H-2A ROCKET BODY 4.4 02:05:22 10° SSW 02:10:35 26° SE 02:26:06 10° E
Landsat 7 4.3 02:08:12 16° SE 02:11:39 44° ENE 02:16:10 10° N
Cosmos 1805 3.9 02:08:58 10° N 02:12:41 40° ENE 02:14:57 20° SE
STARLINK-1104 3.6 02:10:34 10° NW 02:14:42 76° SW 02:17:24 21° SE
ATLAS 2AS CENTAUR R/B 3.3 02:10:59 10° S 02:18:25 47° ESE 02:25:57 10° NE
Cosmos 1900 4.4 02:14:29 10° NNW 02:19:34 82° ENE 02:23:08 20° SE
STARLINK-1144 3.7 02:15:32 10° NW 02:19:40 69° SW 02:22:10 22° SE
Meteor 1-23 Rocket 4.4 02:14:00 10° SSW 02:19:41 79° W 02:25:20 10° N
Cosmos 1066 Rocket 4.2 02:16:33 10° SSW 02:21:55 77° W 02:27:17 10° N
NOSS 3-2 (A) 4.2 02:14:44 10° NNW 02:22:22 72° NE 02:28:54 19° SE
SAR-Lupe-2 3.6 02:20:20 10° NNE 02:23:53 58° ESE 02:26:18 19° S
STARLINK-1103 3.8 02:20:31 10° WNW 02:24:38 63° SW 02:26:57 24° SSE
Cosmos 1733 3.9 02:22:59 10° N 02:26:32 37° ENE 02:28:05 25° SE
Cosmos 1842 4.0 02:25:34 24° SE 02:27:08 35° E 02:30:41 10° NNE
Cosmos 1092 Rocket 4.1 02:22:30 13° SSE 02:27:48 59° E 02:33:50 10° NNE
STARLINK-52 3.0 02:24:39 10° SW 02:27:51 77° NW 02:31:04 10° NE
STARLINK-1352 4.5 02:28:37 25° SE 02:28:37 25° SE 02:31:39 10° ENE
STARLINK-1101 3.9 02:25:31 10° WNW 02:29:35 57° SW 02:31:43 26° SSE
STARLINK-1368 4.4 02:32:40 28° SE 02:32:40 28° SE 02:35:58 10° ENE
COSMOS 2455 3.7 02:30:26 21° SSE 02:33:05 29° ESE 02:38:10 10° NE
STARLINK-1102 4.0 02:30:32 10° WNW 02:34:34 51° SW 02:36:32 27° SSE
Milstar 3 Cent rocket 4.3 02:28:00 10° SW 02:35:18 35° SSE 02:49:09 10° E
STARLINK-1369 4.2 02:36:43 30° SE 02:36:48 30° SE 02:40:17 10° ENE
USA 238 DEB 3.9 02:29:37 10° NNW 02:36:55 84° NE 02:42:03 22° SE
USA 238 3.9 02:29:43 10° NNW 02:37:01 83° NE 02:42:09 22° SE
Okean 1 Rocket 3.5 02:33:52 10° NNW 02:38:14 59° W 02:41:35 16° S
Spot 2 Rocket 3.5 02:35:31 20° SSE 02:39:05 84° WSW 02:44:10 10° NNW
Cosmos 1455 Rocket 3.8 02:35:27 10° N 02:39:28 37° ENE 02:41:04 27° ESE
STARLINK-1111 4.2 02:35:34 10° WNW 02:39:33 46° SW 02:41:19 28° SSE
STARLINK-1372 4.1 02:40:46 32° SE 02:41:02 33° SE 02:44:36 10° ENE
Meteor 1-22 Rocket 4.2 02:35:57 10° N 02:41:44 70° E 02:45:04 25° SSE
Cosmos 1271 Rocket 3.9 02:41:37 25° ESE 02:42:04 25° E 02:45:20 10° NE
SL-4 R/B 3.3 02:39:02 10° WSW 02:43:36 50° NNW 02:48:20 10° NE
FALCON 9 DEB 3.0 02:40:21 10° SW 02:43:46 89° SE 02:47:12 10° NE
STARLINK-1073 4.3 02:40:34 10° WNW 02:44:29 42° SW 02:46:05 28° S
STARLINK-1378 4.0 02:44:48 34° SSE 02:45:15 36° SE 02:48:54 10° ENE
CARTOSAT-1 3.8 02:45:52 31° SE 02:47:40 54° ENE 02:51:53 10° N
SPOT 5 3.4 02:46:23 27° SE 02:49:07 55° ENE 02:54:22 10° N
STARLINK-1121 4.5 02:45:34 10° WNW 02:49:25 38° SW 02:50:51 28° S
STARLINK-1379 3.9 02:48:54 36° SSE 02:49:33 39° SE 02:53:16 10° ENE
STARLINK-1235 4.3 02:46:23 10° NW 02:49:36 37° NNE 02:51:02 24° E
SL-27 R/B 2.4 02:46:18 10° NNW 02:49:51 71° ENE 02:50:47 44° SE
IGS 5A 3.6 02:48:39 26° S 02:50:54 69° WSW 02:55:03 10° NNW
STARLINK-1329 3.8 02:52:04 36° SSE 02:52:54 42° SE 02:56:40 10° ENE
Cosmos 1707 4.0 02:53:41 24° E 02:53:45 24° E 02:56:56 10° NE
Cosmos 2263 4.1 02:49:09 10° SSW 02:54:44 80° ESE 03:00:22 10° NNE
ATLAS CENTAUR R/B 1.4 02:52:16 17° SSW 02:55:33 63° ESE 02:59:43 10° NE
Terra 2.4 02:55:01 30° ESE 02:56:51 44° ENE 03:01:23 10° N
Okean 2 3.6 02:54:12 21° SSW 02:56:52 72° W 03:01:02 10° N
Cosmos 1758 4.4 02:53:21 10° NNE 02:56:58 30° ENE 02:57:44 28° E
STARLINK-1362 3.7 02:56:04 34° S 02:57:14 46° SE 03:01:05 10° ENE
Resurs 01 Rocket 3.7 02:55:26 10° SW 02:58:55 22° W 03:02:26 10° NW
USA 245 3.6 02:58:45 29° SW 02:59:14 32° WSW 03:01:29 10° NW
Meteor 2-13 Rocket 4.4 02:56:30 24° S 03:00:24 70° E 03:06:32 10° NNE
Abrixas rocket 4.5 02:59:09 10° WSW 03:00:09 12° SW 03:00:09 12° SW
STARLINK-1373 3.6 03:00:24 36° S 03:01:35 50° SE 03:05:27 10° ENE
CZ-4B DEB 4.4 03:01:15 47° SSW 03:02:03 71° WSW 03:05:24 10° NNW
Cosmos 1242 Rocket 2.4 03:04:39 50° S 03:05:32 78° E 03:09:12 10° NNE
APEX 4.4 02:59:01 10° SSW 03:05:32 75° WNW 03:10:53 10° NNE
STARLINK-1390 3.5 03:04:35 35° SSW 03:05:58 55° SE 03:09:52 10° ENE
Cosmos 1174 3.6 03:06:45 48° E 03:06:45 48° E 03:09:46 10° NE
Cosmos 1943 Rocket 3.4 03:01:10 10° SW 03:06:25 42° WNW 03:11:44 10° N
SPOT 1/Viking Rocket 3.8 03:03:36 26° S 03:06:29 65° W 03:11:36 10° NNW
Cosmos 2026 Rocket 4.0 03:02:16 21° S 03:06:44 87° E 03:13:08 10° N
Cosmos 1536 Rocket 4.3 03:07:37 33° ESE 03:08:03 34° E 03:12:01 10° NNE
STARLINK-1365 3.4 03:07:35 21° SSW 03:10:08 62° SE 03:14:07 10° ENE
STARLINK-1212 3.7 03:07:43 10° NW 03:10:42 42° NNE 03:11:05 40° NE
STARLINK-1105 3.6 03:08:13 10° NW 03:11:14 43° NNE 03:11:35 41° NE
SeaSat 1 4.5 03:09:15 10° ENE 03:10:22 12° E 03:10:22 12° E
STARLINK-1247 3.6 03:09:11 10° NW 03:12:12 44° NNE 03:12:31 42° NE
STARLINK-1227 3.6 03:09:42 10° NW 03:12:43 44° NNE 03:13:00 43° NE
STARLINK-1226 3.6 03:10:41 10° NW 03:13:43 45° NE 03:13:58 44° NE
CENTAUR R/B 3.2 03:06:09 10° NW 03:14:23 84° NE 03:19:27 30° SE
STARLINK-1215 3.5 03:11:40 10° NW 03:14:44 46° NE 03:14:58 45° NE
Cosmos 2084 4.2 03:15:32 35° E 03:15:32 35° E 03:19:03 10° NE
Cosmos 1833 4.3 03:09:21 10° NNW 03:14:58 63° ENE 03:17:12 36° SE
Cosmos 1766 4.5 03:11:37 10° NNW 03:15:20 38° W 03:17:08 24° SW
Cosmos 1486 Rocket 4.0 03:10:51 10° NNW 03:16:09 83° WSW 03:18:11 39° SSE
STARLINK-1217 3.5 03:13:41 10° NW 03:16:44 49° NE 03:16:55 48° NE
Cosmos 1544 Rocket 3.5 03:12:35 10° N 03:16:56 70° E 03:17:56 50° SE
Cosmos 1354 Rocket 4.5 03:12:24 10° N 03:17:34 50° ENE 03:19:23 35° ESE
STARLINK-1229 3.4 03:14:38 10° NW 03:17:42 49° NE 03:17:49 49° NE
STARLINK-1270 3.4 03:15:40 10° NW 03:18:46 51° NE 03:18:52 51° NE
Cosmos 1553 Rocket 4.1 03:12:57 10° N 03:19:08 61° E 03:21:34 36° SE
STARLINK-1189 3.4 03:17:48 10° NW 03:20:55 53° NE 03:20:56 53° NE
ATLAS 3B R/B 3.4 03:15:16 10° NNW 03:21:49 47° NE 03:25:46 24° ESE
STARLINK-1188 3.3 03:18:52 10° NW 03:21:59 55° NE 03:21:59 55° NE
Cosmos 1992 Rocket 3.9 03:21:20 26° SSW 03:24:20 85° WNW 03:29:35 10° NNE
STARLINK-1191 3.3 03:21:23 10° NW 03:24:21 57° NNE 03:24:21 57° NNE
STARLINK-1338 3.3 03:23:31 28° SW 03:25:28 83° SE 03:29:24 10° NE
STARLINK-1221 3.3 03:22:31 10° NW 03:25:28 58° NNE 03:25:28 58° NNE
STARLINK-1209 3.0 03:22:49 10° NW 03:26:15 86° N 03:26:15 86° N
STARLINK-1222 3.3 03:23:33 10° NW 03:26:28 59° NNE 03:26:28 59° NNE
Cosmos 1656 Rocket 3.7 03:22:48 18° SSW 03:27:06 80° WNW 03:32:42 10° NNE
STARLINK-1214 3.3 03:24:43 10° NW 03:27:39 60° N 03:27:39 60° N
Meteor 1-21 4.4 03:25:54 25° SSW 03:29:14 72° W 03:34:50 10° N
JB-3 4.4 03:28:49 10° NNE 03:32:53 59° E 03:32:57 59° ESE
STARLINK-1371 3.4 03:31:19 24° SW 03:33:38 85° NW 03:37:35 10° NE
NOSS 3-2 (C) 4.2 03:27:18 10° NW 03:35:01 70° WSW 03:39:06 34° SSE
STARLINK-1341 3.5 03:35:17 22° WSW 03:37:45 79° NW 03:41:42 10° NE
STARLINK-1234 3.4 03:34:14 10° NW 03:37:24 67° W 03:37:24 67° W
Cosmos 2369 Rocket 3.8 03:34:04 10° WSW 03:39:10 33° WNW 03:44:16 10° N
Cosmos 2266 Rocket 4.3 03:37:44 40° SE 03:39:16 49° E 03:45:02 10° NNE
STARLINK-1228 3.4 03:36:15 10° NW 03:39:30 66° W 03:39:30 66° W
ATLAS 3B CENTAUR R/B 3.9 03:28:16 10° W 03:40:35 33° SSW 03:42:24 31° S
ERS-1 Rocket 3.9 03:39:13 28° SSW 03:41:12 41° W 03:45:58 10° NNW
NOSS 3-4 (A) 3.9 03:35:26 10° SW 03:41:15 59° NW 03:47:27 10° NNE
NOSS 3-4 (C) 3.9 03:35:31 10° SW 03:41:21 59° NW 03:47:34 10° NNE
STARLINK-1374 3.6 03:39:17 20° WSW 03:41:52 73° NW 03:45:48 10° NE
Cosmos 1655 Rocket 3.9 03:40:04 41° SSE 03:42:19 73° E 03:48:34 10° NNE
BREEZE-M DEB (TANK) 3.4 03:34:21 10° NW 03:43:36 61° SW 03:44:45 47° S
STARLINK-1187 3.8 03:40:21 10° NW 03:42:52 48° WNW 03:42:52 48° WNW
Cosmos 1025 Rocket 3.0 03:45:13 58° SW 03:45:57 73° W 03:50:16 10° N
STARLINK-1339 3.7 03:43:14 18° WSW 03:46:01 68° NW 03:49:57 10° NE
STARLINK-1320 4.2 03:46:51 34° WNW 03:47:33 40° NNW 03:50:31 10° NE
STARLINK-1322 4.2 03:47:10 33° WNW 03:47:54 39° NNW 03:50:52 10° NE
STARLINK-1324 4.2 03:47:31 33° WNW 03:48:14 39° NNW 03:51:12 10° NE
STARLINK-1294 4.2 03:47:53 34° WNW 03:48:30 39° NNW 03:51:28 10° NE
STARLINK-1261 4.3 03:48:09 32° WNW 03:48:54 39° NNW 03:51:52 10° NE
STARLINK-1325 4.3 03:48:28 32° WNW 03:49:14 38° NNW 03:52:13 10° NE
STARLINK-1333 4.3 03:48:50 32° WNW 03:49:36 38° NNW 03:52:34 10° NE
STARLINK-1334 4.3 03:49:10 32° WNW 03:49:55 38° NNW 03:52:52 10° NE
STARLINK-1377 3.9 03:47:12 16° WSW 03:50:11 63° NW 03:54:07 10° NE
STARLINK-1326 4.3 03:49:30 31° WNW 03:50:15 38° NNW 03:53:13 10° NE
STARLINK-1323 4.3 03:49:47 31° WNW 03:50:36 38° NNW 03:53:33 10° NE
STARLINK-1349 4.3 03:50:06 31° WNW 03:50:55 37° NNW 03:53:51 10° NE
STARLINK-1336 4.4 03:50:26 30° WNW 03:51:16 37° NNW 03:54:12 10° NE
STARLINK-1331 4.4 03:50:46 30° WNW 03:51:38 37° NNW 03:54:34 10° NE
STARLINK-1344 4.4 03:51:05 30° WNW 03:51:56 37° NNW 03:54:52 10° NE
STARLINK-1343 4.4 03:51:24 29° WNW 03:52:18 36° NNW 03:55:14 10° NE
STARLINK-1346 4.4 03:51:36 28° WNW 03:52:37 36° NNW 03:55:34 10° NE
STARLINK-1328 4.4 03:52:06 29° WNW 03:52:59 36° NNW 03:55:55 10° NE
Cosmos 2292 Rocket 4.3 03:54:25 30° NE 03:54:25 30° NE 03:56:13 10° NNE
STARLINK-1354 4.4 03:52:25 29° WNW 03:53:19 36° NNW 03:56:14 10° NE
STARLINK-1347 4.5 03:52:43 28° WNW 03:53:37 35° NNW 03:56:33 10° NE
STARLINK-1357 4.5 03:53:05 28° WNW 03:54:01 35° NNW 03:56:56 10° NE
Cosmos 1470 3.4 03:50:20 10° NNW 03:54:02 44° W 03:54:15 44° WSW
STARLINK-1335 4.5 03:53:22 28° WNW 03:54:20 35° NNW 03:57:15 10° NE
STARLINK-1353 4.0 03:51:07 14° WSW 03:54:22 58° NW 03:58:16 10° NE
STARLINK-1327 4.5 03:53:44 28° WNW 03:54:40 35° NNW 03:57:35 10° NE
Cosmos 1674 4.0 03:55:48 30° ENE 03:55:48 30° ENE 03:58:20 10° NNE
Cosmos 1726 2.5 03:51:58 10° N 03:55:12 58° NE 03:55:12 58° NE
Cosmos 1867 3.6 03:51:10 10° NW 03:56:35 67° WSW 03:57:37 54° S
Cosmos 968 Rocket 4.1 03:51:49 10° NNW 03:56:41 44° WSW 03:57:51 38° SW
BREEZE-M R/B 4.3 03:45:11 10° SW 03:57:03 72° SE 04:02:17 10° ENE
STARLINK-1375 4.2 03:55:08 13° WSW 03:58:34 54° NW 04:02:27 10° NE
Cosmos 1340 Rocket 2.9 03:56:42 10° N 04:00:36 72° NE 04:00:36 72° NE
ATLAS 5 CENTAUR R/B 2.5 03:55:52 10° SW 04:02:15 54° NW 04:04:49 10° NNE
STARLINK-1350 4.3 03:59:06 11° WSW 04:02:45 50° NNW 04:06:36 10° NE
STARLINK-1197 4.4 03:59:44 10° NW 04:03:46 47° NNE 04:04:21 43° ENE
In-Cosmos 22 3.9 04:04:12 60° S 04:05:13 88° ESE 04:10:32 10° N
STARLINK-1352 4.4 04:03:12 10° WSW 04:07:01 47° NNW 04:10:51 10° NE
Cosmos 921 Rocket 4.3 04:08:22 30° ENE 04:08:22 30° ENE 04:11:17 10° NE
RESURS DK-1 2.4 04:08:27 78° N 04:08:27 78° N 04:12:21 10° NNE
STARLINK-1198 4.2 04:04:43 10° NW 04:08:46 50° NNE 04:09:09 48° NE
Cosmos 2228 3.9 04:05:11 10° N 04:08:54 37° ENE 04:08:54 37° ENE
ATLAS 2AS CENTAUR R/B 4.0 04:01:52 10° WSW 04:09:29 47° NW 04:17:06 10° NNE
CZ-4C R/B 3.9 04:15:02 17° E 04:15:02 17° E 04:17:08 10° ENE
STARLINK-1199 4.1 04:09:40 10° NW 04:13:45 55° NE 04:13:55 54° NE
Cosmos 1953 2.6 04:11:08 10° NNW 04:14:45 59° WNW 04:14:45 59° WNW
Cosmos 1777 Rocket 4.1 04:11:21 10° NNW 04:16:33 61° ENE 04:17:17 55° ESE
STARLINK-1210 4.0 04:14:37 10° NW 04:18:42 59° NNE 04:18:42 59° NNE
COSMOS 2455 3.7 04:13:27 12° SW 04:18:45 47° NW 04:24:33 10° NNE
Thor Agena Rocket 3.6 04:16:52 10° N 04:22:09 77° WNW 04:23:12 57° SW
STARLINK-1219 3.9 04:19:37 10° NW 04:23:30 63° NNE 04:23:30 63° NNE
Cosmos 1626 4.0 04:26:25 22° NE 04:26:25 22° NE 04:28:19 10° NNE
Cosmos 1892 Rocket 4.3 04:25:50 41° ENE 04:25:50 41° ENE 04:29:20 10° NNE
Cosmos 1726 Rocket 4.1 04:22:19 10° N 04:26:11 47° ENE 04:26:11 47° ENE
STARLINK-1211 4.0 04:24:34 10° NW 04:28:17 63° N 04:28:17 63° N
COSMOS 2487 4.2 04:25:41 10° NW 04:27:45 27° WNW 04:27:45 27° WNW
STARLINK-1245 4.0 04:29:33 10° NW 04:33:04 61° NNW 04:33:04 61° NNW
ATLAS CENTAUR R/B 4.2 04:31:59 10° W 04:34:46 17° NW 04:37:28 10° N
Terra 3.7 04:33:54 18° WSW 04:34:48 19° W 04:38:10 10° NW
SJ 16-02 3.4 04:32:00 10° NNE 04:35:01 18° ENE 04:35:53 17° ENE
STARLINK-1233 4.2 04:34:31 10° NW 04:37:50 56° NW 04:37:50 56° NW
Timation 2 Rocket 3.8 04:32:48 10° NNW 04:39:04 85° ENE 04:40:11 62° SE
EO 1 Del DPAF 4.3 04:36:36 10° N 04:39:53 40° WNW 04:39:53 40° WNW
Meteor 1-24 Rocket 3.7 04:43:16 60° ESE 04:43:30 60° E 04:48:55 10° NNE
STARLINK-1204 4.3 04:39:30 10° NW 04:42:36 50° NW 04:42:36 50° NW
Cosmos 1809 Rocket 4.3 04:46:19 63° SSE 04:47:23 81° E 04:53:35 10° N
STARLINK-1238 4.5 04:44:29 10° NW 04:47:24 44° WNW 04:47:24 44° WNW
SeaSat 1 2.4 04:44:42 10° NNE 04:49:39 76° WNW 04:50:08 69° WSW
Cosmos 2297 Rocket 3.0 04:46:33 10° NNW 04:51:57 43° ENE 04:53:23 36° E
Cosmos 1656 4.0 04:52:29 50° ESE 04:52:29 50° ESE 04:57:46 10° NE
Cosmos 2219 3.5 04:49:06 10° NNW 04:54:40 56° ENE 04:55:42 48° ESE
Nadezhda 2 Rocket 4.3 04:54:27 65° S 04:55:28 88° E 05:01:39 10° N
USA 215 4.4 04:50:14 10° E 04:56:14 40° NNE 05:02:14 10° NW
Cosmos 2315 Rocket 4.1 04:50:46 10° NNW 04:56:54 65° W 04:58:03 55° SW
CENTAUR R/B 4.4 04:58:07 10° WNW 05:04:33 25° WSW 05:06:36 23° SW
SL-14 R/B 4.2 05:06:40 46° N 05:06:40 46° N 05:09:27 10° N
Cosmos 1626 Rocket 4.5 05:09:25 40° ENE 05:09:25 40° ENE 05:12:49 10° NNE
ATLAS 3B R/B 3.4 05:06:10 10° NW 05:12:23 38° WSW 05:13:00 37° SW
Nadezhda 1 Rocket 4.5 05:07:16 10° N 05:13:20 50° ENE 05:14:46 43° ESE
Cosmos 1697 Rocket 3.3 05:15:48 42° ESE 05:15:48 42° ESE 05:20:59 10° NE
Cosmos 2058 Rocket 3.5 05:16:02 10° NNW 05:19:55 59° NW 05:19:55 59° NW
ALOS 2 3.4 05:23:18 43° WNW 05:23:18 43° WNW 05:26:50 10° NNW
Meteor 2-16 Rocket 4.3 05:22:16 68° S 05:23:09 86° E 05:29:17 10° N
STARLINK-1224 4.4 05:21:41 10° NW 05:25:34 49° NNE 05:25:34 49° NNE
Cosmos 1300 3.8 05:22:12 10° NNW 05:24:49 41° NNW 05:24:49 41° NNW
ATLAS CENTAUR R/B 3.4 05:24:39 10° NNW 05:26:05 27° N 05:26:05 27° N
EO 1 Delta rocket 3.8 05:24:21 10° N 05:29:25 81° WNW 05:29:25 81° WNW
Cosmos 2227 Rocket 2.2 05:24:00 10° NNW 05:29:42 75° ENE 05:30:28 65° ESE
STARLINK-1225 4.4 05:26:39 10° NW 05:30:21 51° NNE 05:30:21 51° NNE
Helios 1B rocket 3.4 05:31:25 10° NNE 05:34:34 41° ENE 05:34:34 41° ENE
STARLINK-1230 4.3 05:31:36 10° NW 05:35:07 52° N 05:35:07 52° N
Cosmos 841 Rocket 4.3 05:37:57 38° E 05:37:57 38° E 05:42:36 10° NE
Cosmos 1812 Rocket 4.1 05:34:29 10° N 05:38:32 52° ENE 05:38:32 52° ENE
STARLINK-1243 4.4 05:36:35 10° NW 05:39:56 51° NNW 05:39:56 51° NNW
SL-08 ROCKET BODY 4.1 05:44:28 70° SSW 05:45:11 87° W 05:51:04 10° N
STARLINK-1236 4.4 05:41:33 10° NW 05:44:41 48° NNW 05:44:41 48° NNW
Cosmos 1763 Rocket 3.3 05:45:57 87° E 05:45:57 87° E 05:51:01 10° NNE
Cosmos 1602 Rocket 3.8 05:46:55 65° N 05:46:55 65° N 05:50:38 10° N
Meteor 1-21 Rocket 4.2 05:47:49 62° SE 05:48:25 67° E 05:54:08 10° NNE
PSLV R/B 3.9 05:44:24 10° NNE 05:48:15 63° NE 05:48:15 63° NE
Cosmos 1745 Rocket 3.9 05:50:15 62° SW 05:51:14 76° W 05:57:24 10° N
FALCON 9 R/B 3.3 05:53:12 43° SSE 05:53:12 43° SSE 06:04:02 10° ESE
Lacrosse 4 Rocket 1.9 05:48:11 10° NNW 05:52:03 57° NE 05:52:03 57° NE
BREEZE-M DEB (TANK) 3.9 05:52:38 10° WNW 05:55:51 22° NNW 05:57:54 10° NE
BREEZE-M DEB (TANK) 3.5 05:54:10 10° WNW 06:02:44 20° SE 06:05:58 10° SE
Cosmos 2208 Rocket 4.2 05:58:06 55° ESE 05:58:16 56° ESE 06:03:30 10° NNE
CZ-2D R/B 3.9 05:55:51 10° NE 05:59:25 19° E 06:00:29 17° ESE
Cosmos 1626 4.5 06:00:57 16° WNW 06:00:57 16° WNW 06:02:49 10° NNW
Cosmos 1703 4.4 06:01:42 39° ENE 06:01:42 39° ENE 06:04:44 10° NNE
CZ-4C R/B 2.4 06:00:10 47° W 06:01:11 55° NW 06:06:56 10° NNE
Cosmos 1455 3.2 05:58:25 10° N 06:01:17 43° NNE 06:01:17 43° NNE
Meteor 2-10 Rocket 3.4 05:57:26 10° N 06:02:34 72° E 06:02:55 69° ESE
USA 81 4.0 06:02:59 65° SE 06:03:27 69° E 06:08:43 10° N
Cosmos 1980 Rocket 2.1 06:12:35 63° SSE 06:13:10 68° ESE 06:18:47 10° NNE
CZ-4 R/B 4.0 06:09:00 10° N 06:13:37 56° WNW 06:13:44 56° WNW
SJ 16-02 2.3 06:09:36 10° NNW 06:12:52 38° WNW 06:12:52 38° WNW
Meteor 1-29 4.4 06:12:18 10° N 06:14:26 37° N 06:14:26 37° N
STARLINK-1267 4.5 06:20:15 41° NE 06:20:15 41° NE 06:22:46 10° NE
Cosmos 2369 4.0 06:21:00 49° WSW 06:22:07 59° WNW 06:27:42 10° NNE
Cosmos 540 Rocket 3.3 06:23:15 76° SSW 06:23:39 87° WNW 06:28:49 10° NNE
STARLINK-1207 4.3 06:26:31 46° NNE 06:26:31 46° NNE 06:29:17 10° NE
Cosmos 1758 Rocket 3.6 06:26:51 68° WNW 06:26:51 68° WNW 06:31:02 10° N
Cosmos 2181 Rocket 4.1 06:21:12 10° N 06:27:39 73° E 06:29:52 43° SSE
STARLINK-1266 4.2 06:29:39 49° NNE 06:29:39 49° NNE 06:32:34 10° NE
STARLINK-1284 4.1 06:32:52 51° N 06:32:52 51° N 06:35:57 10° NE
Cosmos 2263 Rocket 3.6 06:28:00 10° N 06:33:05 34° ENE 06:38:07 10° ESE
Cosmos 2084 Rocket 3.8 06:28:45 10° NNW 06:33:13 68° NE 06:33:57 56° ESE
STARLINK-1258 4.1 06:35:58 51° N 06:35:58 51° N 06:39:09 10° NE
Cosmos 2297 Rocket 3.4 06:31:06 10° NW 06:35:10 26° W 06:35:10 26° W
Cosmos 2360 4.5 06:35:49 47° WSW 06:37:07 59° WNW 06:42:46 10° NNE
Cosmos 1400 Rocket 3.4 06:33:18 10° N 06:37:21 51° ENE 06:37:40 49° E
STARLINK-1292 4.1 06:39:09 50° NNW 06:39:09 50° NNW 06:42:28 10° NE
USA 215 3.1 06:35:30 30° SSE 06:38:57 73° SW 06:45:31 10° NW
Cosmos 1709 Rocket 4.2 06:38:36 47° SW 06:40:01 57° W 06:46:05 10° N
ADEOS II 4.2 06:38:12 10° NE 06:41:39 18° E 06:44:21 12° SE
STARLINK-1278 4.5 06:42:53 41° ESE 06:42:53 41° ESE 06:46:14 10° ENE
SL-16 R/B 3.0 06:39:30 24° SE 06:43:08 56° ENE 06:49:09 10° N
STARLINK-1301 4.1 06:43:14 47° NW 06:43:16 47° NNW 06:46:57 10° NE
STARLINK-1280 4.4 06:44:39 43° ESE 06:44:39 43° ESE 06:48:05 10° ENE
NPP 4.4 06:39:40 10° NNE 06:44:47 43° E 06:46:25 34° SE
Cosmos 1953 Rocket 3.4 06:44:45 81° WSW 06:44:51 82° W 06:49:17 10° N
STARLINK-1289 4.1 06:45:29 46° NNW 06:45:29 46° NNW 06:49:04 10° NE
Cosmos 1937 Rocket 3.9 06:40:39 10° NNW 06:45:39 45° WSW 06:45:39 45° WSW
SL-19 R/B 4.4 06:40:25 10° N 06:46:05 73° WNW 06:47:39 50° SW
STARLINK-1303 4.2 06:48:42 43° NW 06:48:49 43° NNW 06:52:24 10° NE
Cosmos-2242 3.2 06:45:24 10° NNW 06:49:17 56° WNW 06:49:17 56° WNW
Cosmos 2082 4.1 06:44:30 10° NW 06:49:45 41° WSW 06:49:50 41° WSW
STARLINK-1283 4.4 06:49:10 40° WNW 06:49:51 44° NNW 06:53:46 10° NE
GP-B 3.1 06:46:09 10° N 06:50:36 71° E 06:51:08 63° SE
Cosmos 2322 Rocket 3.3 06:49:46 27° SE 06:51:30 33° ESE 06:56:28 10° NE
STARLINK-1312 4.3 06:51:59 40° NW 06:52:15 41° NNW 06:55:49 10° NE
Cosmos 2221 4.2 06:48:28 10° NNE 06:52:19 30° ENE 06:54:26 20° ESE
Cosmos 489 Rocket 4.4 06:53:15 48° SSW 06:55:08 81° WNW 07:01:26 10° NNE
STARLINK-1286 4.0 06:56:53 51° ESE 06:56:53 51° ESE 07:00:35 10° ENE
STARLINK-48 3.5 06:57:13 74° NNW 06:57:13 74° NNW 07:01:01 10° NE
Cosmos 2278 4.4 06:57:14 34° WSW 06:58:58 43° WNW 07:04:23 10° NNE
Cosmos 1697 Rocket 4.1 06:57:30 22° W 06:59:45 29° NW 07:04:39 10° N
Cosmos 372 Rocket 3.8 06:55:31 10° NNW 07:00:40 75° WSW 07:01:47 54° S
STARLINK-1281 3.9 07:01:19 55° ESE 07:01:19 55° ESE 07:05:07 10° ENE
Cosmos 2285 Rocket 4.3 06:56:23 10° NNW 07:02:25 47° WSW 07:03:42 42° SW
STARLINK-1310 3.7 07:06:04 62° SE 07:06:04 62° SE 07:10:06 10° ENE
CZ-4C R/B 3.5 07:05:45 60° SSE 07:06:32 89° E 07:11:00 10° NNW
Cosmos 2150 Rocket 3.8 07:02:12 10° NNW 07:07:23 88° WSW 07:09:09 42° SSE
AQUA 4.2 07:04:32 10° NNE 07:09:14 55° E 07:10:39 39° SSE
STARLINK-1319 3.5 07:10:51 68° SSE 07:10:58 68° SE 07:15:06 10° NE
BREEZE-M DEB (TANK) 4.1 07:08:29 10° NW 07:14:50 - ESE 07:09:12 15° NW
UNK 3.7 07:09:56 48° SSE 07:11:13 85° ENE 07:15:49 10° NNW
Resurs 1-4 Rocket 2.0 07:06:00 10° NNE 07:11:20 87° ESE 07:13:01 46° SSW
Cosmos 1315 Rocket 3.7 07:08:10 10° N 07:11:56 43° ENE 07:13:24 30° SE
Cosmos 2227 Rocket 4.1 07:10:03 10° WNW 07:12:15 14° W 07:12:15 14° W
Meteor 1-27 4.1 07:08:07 10° N 07:13:43 88° E 07:16:09 36° S
Cosmos 2058 4.1 07:12:33 27° SE 07:14:00 36° E 07:17:51 10° NNE
STARLINK-1277 3.4 07:15:38 70° S 07:15:56 75° SE 07:20:05 10° NE
Cosmos 2227 4.2 07:12:47 10° NNW 07:18:35 89° SW 07:22:09 24° SSE
NOSS 2-1 (C) 2.8 07:18:54 86° NNE 07:18:54 86° NNE 07:22:19 10° NE
STARLINK-1276 3.4 07:20:25 67° SSW 07:20:55 82° SE 07:25:05 10° NE
BREEZE-M DEB (TANK) 3.8 07:22:25 22° NNW 07:22:25 22° NNW 07:24:25 10° NE
Cosmos 1125 Rocket 3.5 07:18:05 10° NNW 07:23:18 79° ENE 07:26:34 23° SSE
NOSS 2-1 (D) 2.8 07:23:38 77° WNW 07:23:43 77° NW 07:27:13 10° NNE
STARLINK-1306 3.5 07:23:15 60° SW 07:23:59 88° NNW 07:28:11 10° NE
USA 229 DEB 4.1 07:16:49 10° NNW 07:24:10 75° NE 07:31:49 10° SE
GEOS 3 Rocket 4.2 07:19:12 10° SE 07:24:16 57° NE 07:29:27 10° NNW
USA 229 4.1 07:16:56 10° NNW 07:24:16 74° NE 07:31:55 10° SE
NOSS 3-1 (C) 4.2 07:17:51 10° NNW 07:25:33 83° NE 07:34:21 10° SE
STARLINK-1305 3.5 07:25:10 61° SW 07:25:52 90° ESE 07:30:02 10° NE
SL-16 R/B 2.2 07:24:07 39° SSW 07:26:19 80° ESE 07:32:01 10° NNE
Cosmos 2074 Rocket 4.1 07:24:26 37° SSW 07:26:57 64° W 07:33:13 10° N
STARLINK-1262 3.5 07:29:59 54° WSW 07:30:52 83° NW 07:35:03 10° NE
Cosmos 2298 Rocket 4.3 07:28:47 10° NNW 07:33:51 46° WSW 07:35:12 38° SW
STARLINK-1300 3.6 07:34:47 47° WSW 07:35:52 76° NW 07:40:01 10° NE
STARLINK-30 4.5 07:36:23 29° SE 07:36:31 29° SE 07:39:39 10° ENE
STARLINK-72 4.4 07:37:55 30° SE 07:38:07 30° SE 07:41:18 10° ENE
CZ-2D R/B 2.4 07:34:43 10° N 07:39:47 53° WNW 07:41:49 33° SW
STARLINK-71 4.5 07:39:13 32° SSE 07:39:53 34° SE 07:43:33 10° ENE
STARLINK-1295 3.7 07:39:33 41° WSW 07:40:51 70° NW 07:44:59 10° NE
STARLINK-59 4.2 07:41:07 33° SE 07:41:25 34° SE 07:44:41 10° ENE
STARLINK-56 4.2 07:42:34 32° SSE 07:42:54 33° SE 07:46:10 10° ENE
Cosmos 2341 Rocket 4.4 07:38:33 18° SSE 07:43:14 60° E 07:49:27 10° NNE
BREEZE-M DEB (TANK) 3.6 07:41:43 32° WSW 07:43:58 89° NNW 07:58:47 10° ENE
STARLINK-50 4.3 07:43:33 32° SSE 07:44:06 34° SE 07:47:33 10° ENE
STARLINK-73 4.1 07:44:09 33° SSE 07:44:34 34° SE 07:47:51 10° ENE
IRIDIUM 104 4.4 07:42:20 26° S 07:45:19 79° E 07:50:33 10° N
SL-4 R/B 2.7 07:40:45 10° NW 07:45:34 66° NNE 07:50:09 10° ESE
STARLINK-1287 3.8 07:44:19 36° WSW 07:45:49 64° NW 07:49:56 10° NE
STARLINK-38 4.1 07:45:42 34° SSE 07:46:10 36° SE 07:49:29 10° ENE
STARLINK-68 4.0 07:45:41 37° SSE 07:46:12 39° SE 07:49:38 10° ENE
STARLINK-60 3.6 07:44:25 10° NW 07:47:34 56° NE 07:50:43 10° ESE
STARLINK-65 4.0 07:47:16 35° SSE 07:47:47 37° SE 07:51:07 10° ENE
STARLINK-53 3.9 07:48:54 37° SSE 07:49:28 41° SE 07:52:52 10° ENE
Cosmos 2360 Rocket 2.7 07:46:14 23° S 07:49:33 52° ESE 07:55:01 10° NNE
STARLINK-1299 4.2 07:47:47 28° W 07:49:43 52° NNW 07:53:54 10° NE
SL-08 R/B 4.1 07:47:03 10° SSE 07:51:31 50° ENE 07:55:59 10° N
IRIDIUM 114 4.3 07:51:28 26° S 07:54:27 85° W 07:59:42 10° N
STARLINK-1302 4.1 07:53:53 28° W 07:55:47 54° NW 07:59:52 10° NE
Cosmos 1076 Rocket 3.5 07:55:10 33° SSW 07:57:04 76° W 08:01:27 10° N
H-2A R/B 4.2 07:53:47 10° SE 07:57:32 28° ENE 08:01:22 10° N
Cosmos 1980 Rocket 4.0 07:54:20 12° W 07:57:43 19° NW 08:01:45 10° N
Cosmos 1892 2.6 07:56:58 39° SSW 07:58:13 69° W 08:02:00 10° N
STARLINK-1444 3.3 07:56:04 10° NW 07:58:13 43° NE 08:00:30 10° ESE
STARLINK-1452 3.3 07:56:41 10° NW 07:58:50 43° NE 08:01:08 10° ESE
CBERS-1 4.0 07:54:39 10° N 07:59:46 70° WNW 08:02:34 27° SSW
ERS-2 4.0 07:56:33 10° SE 07:59:47 30° ENE 08:03:00 10° N
STARLINK-1450 3.2 07:57:42 10° NW 07:59:49 44° NE 08:02:04 10° ESE
STARLINK-1392 3.2 07:57:53 10° NW 08:00:01 44° NE 08:02:14 10° ESE
STARLINK-1415 3.2 07:57:53 10° NW 08:00:01 44° NE 08:02:15 10° ESE
STARLINK-1399 3.2 07:57:54 10° NW 08:00:01 44° NE 08:02:16 10° ESE
STARLINK-1394 3.2 07:57:54 10° NW 08:00:02 44° NE 08:02:16 10° ESE
STARLINK-1395 3.2 07:57:55 10° NW 08:00:03 44° NE 08:02:17 10° ESE
STARLINK-1401 3.2 07:57:55 10° NW 08:00:03 44° NE 08:02:17 10° ESE
STARLINK-1393 3.2 07:57:55 10° NW 08:00:03 44° NE 08:02:17 10° ESE
STARLINK-1396 3.2 07:57:56 10° NW 08:00:03 44° NE 08:02:18 10° ESE
STARLINK-1397 3.2 07:57:56 10° NW 08:00:03 44° NE 08:02:18 10° ESE
STARLINK-1453 3.2 07:57:56 10° NW 08:00:04 44° NE 08:02:18 10° ESE
STARLINK-1404 3.2 07:57:57 10° NW 08:00:05 44° NE 08:02:19 10° ESE
STARLINK-1417 3.2 07:57:58 10° NW 08:00:06 45° NE 08:02:20 10° ESE
STARLINK-1402 3.2 07:57:58 10° NW 08:00:06 45° NE 08:02:20 10° ESE
STARLINK-1413 3.2 07:57:59 10° NW 08:00:07 45° NE 08:02:21 10° ESE
STARLINK-1414 3.2 07:57:58 10° NW 08:00:08 45° NE 08:02:24 10° ESE
STARLINK-1406 3.2 07:58:00 10° NW 08:00:08 45° NE 08:02:22 10° ESE
STARLINK-1416 3.2 07:57:59 10° NW 08:00:09 45° NE 08:02:25 10° ESE
STARLINK-1440 3.2 07:58:02 10° NW 08:00:10 45° NE 08:02:24 10° ESE
STARLINK-1408 3.2 07:58:00 10° NW 08:00:10 45° NE 08:02:26 10° ESE
STARLINK-1445 3.2 07:58:03 10° NW 08:00:11 45° NE 08:02:25 10° ESE
STARLINK-1436 (VISORSAT) 3.2 07:58:01 10° NW 08:00:11 45° NE 08:02:27 10° ESE
STARLINK-1443 3.2 07:58:03 10° NW 08:00:11 45° NE 08:02:26 10° ESE
STARLINK-1454 3.2 07:58:04 10° NW 08:00:12 45° NE 08:02:26 10° ESE
STARLINK-1457 3.2 07:58:04 10° NW 08:00:12 45° NE 08:02:27 10° ESE
STARLINK-1456 3.2 07:58:05 10° NW 08:00:13 45° NE 08:02:28 10° ESE
STARLINK-1419 3.2 07:58:03 10° NW 08:00:13 45° NE 08:02:29 10° ESE
STARLINK-1451 3.2 07:58:05 10° NW 08:00:13 45° NE 08:02:28 10° ESE
STARLINK-1398 3.2 07:58:03 10° NW 08:00:13 45° NE 08:02:30 10° ESE
STARLINK-1442 3.2 07:58:07 10° NW 08:00:14 45° NE 08:02:29 10° ESE
STARLINK-1405 3.2 07:58:09 10° NW 08:00:17 45° NE 08:02:31 10° ESE
STARLINK-1421 3.2 07:58:09 10° NW 08:00:17 45° NE 08:02:31 10° ESE
STARLINK-1422 3.2 07:58:07 10° NW 08:00:17 45° NE 08:02:34 10° ESE
STARLINK-1420 3.2 07:58:07 10° NW 08:00:17 45° NE 08:02:34 10° ESE
STARLINK-1410 3.2 07:58:10 10° NW 08:00:17 45° NE 08:02:32 10° ESE
STARLINK-1400 3.2 07:58:10 10° NW 08:00:17 45° NE 08:02:32 10° ESE
STARLINK-1407 3.2 07:58:11 10° NW 08:00:19 45° NE 08:02:33 10° ESE
STARLINK-1439 3.2 07:58:11 10° NW 08:00:19 45° NE 08:02:33 10° ESE
STARLINK-1460 3.2 07:58:09 10° NW 08:00:20 45° NE 08:02:36 10° ESE
STARLINK-1409 3.2 07:58:12 10° NW 08:00:20 45° NE 08:02:34 10° ESE
STARLINK-1351 3.2 07:58:13 10° NW 08:00:21 45° NE 08:02:35 10° ESE
STARLINK-1370 3.2 07:58:13 10° NW 08:00:21 45° NE 08:02:35 10° ESE
STARLINK-1418 3.2 07:58:13 10° NW 08:00:21 45° NE 08:02:35 10° ESE
STARLINK-1434 3.2 07:58:13 10° NW 08:00:21 45° NE 08:02:35 10° ESE
STARLINK-1403 3.2 07:58:14 10° NW 08:00:22 45° NE 08:02:36 10° ESE
STARLINK-1458 3.2 07:58:12 10° NW 08:00:22 45° NE 08:02:39 10° ESE
STARLINK-1433 3.2 07:58:16 10° NW 08:00:24 45° NE 08:02:38 10° ESE
STARLINK-1411 3.1 07:58:17 10° NW 08:00:25 45° NE 08:02:39 10° ESE
STARLINK-1438 3.1 07:58:18 10° NW 08:00:25 45° NE 08:02:40 10° ESE
STARLINK-1423 3.2 07:58:16 10° NW 08:00:26 45° NE 08:02:43 10° ESE
STARLINK-1446 3.2 07:58:16 10° NW 08:00:26 45° NE 08:02:43 10° ESE
STARLINK-1437 3.2 07:58:17 10° NW 08:00:27 45° NE 08:02:44 10° ESE
STARLINK-1447 3.2 07:58:19 10° NW 08:00:30 46° NE 08:02:47 10° ESE
STARLINK-1455 3.2 07:58:20 10° NW 08:00:30 46° NE 08:02:48 10° ESE
STARLINK-1441 3.2 07:58:21 10° NW 08:00:31 46° NE 08:02:48 10° ESE
STARLINK-1448 3.2 07:58:23 10° NW 08:00:34 46° NE 08:02:52 10° ESE
STARLINK-1449 3.2 07:58:24 10° NW 08:00:36 46° NE 08:02:53 10° ESE
Cosmos 2333 Rocket 4.1 07:56:18 10° SSE 08:00:40 24° ESE 08:05:04 10° NE
STARLINK-1412 3.2 07:58:33 10° NW 08:00:44 46° NE 08:03:01 10° ESE
STARLINK-1273 4.2 07:58:40 25° W 08:00:47 50° NNW 08:04:49 10° NE
Cosmos 2151 3.8 07:58:01 16° SSE 08:01:08 47° E 08:05:16 10° NNE
Cosmos 1869 3.6 07:57:34 10° NNW 08:01:17 46° W 08:02:22 35° SW
STARLINK-1008 4.4 08:01:34 28° S 08:03:09 40° SE 08:07:01 10° ENE
STARLINK-24 3.8 08:01:58 34° SSW 08:03:27 57° SE 08:07:23 10° ENE
IRIDIUM 103 4.3 08:00:37 25° SSW 08:03:37 70° W 08:08:51 10° N
STARLINK-1288 4.4 08:03:26 22° W 08:05:46 46° NNW 08:09:48 10° NE
SL-8 Rocket 4.3 08:00:18 13° S 08:05:52 67° E 08:12:05 10° NNE
Cosmos 2219 Rocket 4.0 08:03:29 10° SSE 08:07:57 25° ESE 08:12:25 10° NE
STARLINK-1014 4.2 08:06:23 27° S 08:08:06 44° SE 08:12:02 10° ENE
Lacrosse 5 rocket 3.8 08:10:55 10° SE 08:12:35 12° ESE 08:14:13 10° E
STARLINK-1025 4.1 08:11:08 27° SSW 08:13:04 49° SE 08:17:04 10° ENE
STARLINK-61 4.1 08:12:43 22° W 08:14:57 49° NNW 08:18:47 10° NE
STARLINK-25 3.1 08:14:07 33° SW 08:15:27 71° SE 08:18:53 10° NE
Cosmos 2263 Rocket 2.8 08:11:58 10° NW 08:16:56 34° WSW 08:19:55 20° SSW
SL-19 R/B 4.4 08:13:42 10° NNE 08:17:56 74° ESE 08:20:23 20° S
STARLINK-1017 4.0 08:15:54 26° SSW 08:18:01 54° SE 08:22:04 10° ENE
STARLINK-29 3.8 08:16:42 10° NW 08:19:51 53° NE 08:22:58 10° ESE
ADEOS II 2.3 08:16:33 10° N 08:21:42 57° WNW 08:25:17 20° SW
STARLINK-1023 3.8 08:20:41 24° SSW 08:22:58 59° SE 08:27:03 10° ENE
IDEFIX/ARIANE 42P 3.3 08:21:33 10° NNE 08:26:40 51° E 08:31:45 10° S
Shenzhou-11 Module 2.1 08:25:20 18° WNW 08:26:56 51° N 08:29:20 10° E
SL-16 R/B 3.7 08:24:35 18° SW 08:27:03 23° W 08:31:50 10° NW
STARLINK-1007 3.7 08:25:30 23° SW 08:27:58 66° SE 08:32:05 10° ENE
STARLINK-81 3.2 08:26:24 25° SW 08:28:25 88° SE 08:32:03 10° NE
IRS-1D 4.3 08:24:34 10° N 08:29:23 37° WNW 08:32:45 18° SW
Cosmos 2221 3.9 08:26:19 10° NW 08:29:42 22° W 08:31:16 18° WSW
STARLINK-54 3.2 08:28:09 23° WSW 08:30:16 80° NW 08:33:54 10° NE
STARLINK-77 3.2 08:29:34 23° SW 08:31:42 86° NW 08:35:21 10° NE
STARLINK-1048 3.7 08:30:16 21° SW 08:32:55 73° SE 08:37:03 10° NE
Cosmos 1408 3.2 08:31:52 22° SW 08:33:49 39° WNW 08:37:18 10° N
IRS-1C 4.4 08:28:57 10° N 08:34:09 55° WNW 08:38:18 16° SW
Cosmos 1825 2.2 08:32:28 19° SSW 08:35:01 62° W 08:38:46 10° N
Cosmos 2322 Rocket 3.1 08:31:35 16° WSW 08:35:28 35° WNW 08:40:36 10° N
STARLINK-79 3.3 08:34:16 21° WSW 08:36:36 78° NW 08:40:14 10° NE
Cosmos 1339 Rocket 4.4 08:30:47 10° N 08:36:55 85° W 08:43:07 10° S
ARIANE 5 R/B 2.5 08:32:27 10° N 08:37:25 66° WNW 08:41:39 14° SSW
STARLINK-1049 3.6 08:35:03 19° SW 08:37:54 80° SE 08:42:03 10° NE
STARLINK-78 3.3 08:35:49 20° WSW 08:38:12 74° NW 08:41:50 10° NE
CZ-4B R/B 4.5 08:36:39 10° E 08:38:14 13° ENE 08:39:50 10° NE
STARLINK-57 3.4 08:37:28 19° WSW 08:39:57 68° NW 08:43:34 10° NE
SL-24 DEB 4.2 08:35:45 10° N 08:40:19 69° W 08:44:43 11° SSW
STARLINK-49 3.4 08:38:57 18° WSW 08:41:28 70° NW 08:45:04 10° NE
STARLINK-1051 3.6 08:39:48 18° SW 08:42:51 87° SE 08:47:00 10° NE
Meteor 2-12 Rocket 4.4 08:36:53 10° S 08:42:56 86° W 08:49:02 10° N
STARLINK-27 3.4 08:40:31 18° WSW 08:43:05 67° NW 08:46:42 10° NE
BREEZE-M R/B 4.4 08:41:14 10° NW 08:43:57 24° NNE 08:46:04 10° ENE
STARLINK-74 3.4 08:42:04 17° WSW 08:44:42 65° NW 08:48:18 10° NE
STARLINK-39 3.5 08:43:32 16° WSW 08:46:14 63° NW 08:49:48 10° NE
STARLINK-31 3.5 08:45:04 16° WSW 08:47:49 60° NW 08:51:23 10° NE
Cosmos 1328 Rocket 3.9 08:44:02 10° N 08:48:24 67° E 08:52:44 10° SSE
STARLINK-69 3.7 08:46:44 15° WSW 08:49:36 53° NW 08:53:07 10° NE
Resurs 1-4 Rocket 4.2 08:48:03 10° NNW 08:50:23 13° WNW 08:52:43 10° W
STARLINK-21 3.6 08:48:11 14° WSW 08:51:04 56° NW 08:54:36 10° NE
STARLINK-1028 3.6 08:49:23 15° SW 08:52:49 79° NW 08:56:58 10° NE
STARLINK-45 3.8 08:49:56 13° WSW 08:52:55 49° NW 08:56:26 10° NE
STARLINK-70 3.8 08:51:10 13° WSW 08:54:11 49° NNW 08:57:40 10° NE
STARLINK-52 2.8 08:52:04 10° NW 08:55:16 78° SW 08:58:28 10° SE
STARLINK-1010 3.8 08:52:24 13° WSW 08:56:05 72° NW 09:00:19 10° NE
STARLINK-76 3.8 08:53:00 13° WSW 08:56:06 50° NNW 08:59:37 10° NE
Cosmos 2366 rocket 4.1 08:50:53 10° SSW 08:57:02 63° W 09:03:18 10° N
Cosmos 1340 4.1 08:54:06 10° SSE 08:57:34 37° E 09:01:04 10° NNE
STARLINK-23 3.9 08:54:26 12° WSW 08:57:34 49° NNW 09:01:04 10° NE
STARLINK-1021 3.7 08:54:13 13° WSW 08:57:50 72° NW 09:01:59 10° NE
Cosmos 1933 3.5 08:54:21 10° N 08:58:24 78° E 09:02:23 10° S
MSX 4.1 08:53:05 10° NNE 08:58:50 70° ESE 09:04:31 10° S
STARLINK-32 3.9 08:55:55 12° WSW 08:59:07 47° NNW 09:02:35 10° NE
STARLINK-40 4.0 08:57:35 11° WSW 09:00:52 46° NNW 09:04:21 10° NE
STARLINK-44 4.0 08:59:01 11° WSW 09:02:21 44° NNW 09:05:48 10° NE
CZ-4C R/B 3.1 08:59:09 10° S 09:02:45 63° WSW 09:06:22 10° NNW
STARLINK-1019 3.8 08:58:57 12° WSW 09:02:47 66° NW 09:06:55 10° NE
Landsat 5 3.6 08:58:52 10° S 09:03:23 76° WSW 09:07:52 10° NNW
BREEZE-M TANK 4.1 09:00:58 10° SSW 09:03:26 18° SE 09:05:43 10° E
Cosmos 2237 Rocket 4.2 08:58:59 10° SSE 09:03:31 25° ESE 09:08:05 10° NE
STARLINK-37 4.2 09:00:58 10° WSW 09:04:22 40° NNW 09:07:48 10° NE
STARLINK-36 4.1 09:02:04 10° WSW 09:05:28 42° NNW 09:08:53 10° NE
Spot 4 Rocket 4.4 09:02:32 10° N 09:07:28 49° WNW 09:12:23 10° SW
STARLINK-1012 3.9 09:03:44 10° WSW 09:07:46 61° NW 09:11:53 10° NE
STARLINK-63 4.3 09:05:48 10° W 09:09:09 38° NNW 09:12:33 10° NE
STARLINK-35 4.3 09:07:17 10° WSW 09:10:40 38° NNW 09:14:03 10° NE
SL-16 R/B 4.1 09:07:27 10° W 09:11:07 17° NW 09:14:49 10° N
Cosmos 1844 Rocket 2.7 09:06:30 10° NNW 09:12:00 58° WSW 09:17:25 10° S
STARLINK-51 4.3 09:08:57 10° W 09:12:19 37° NNW 09:15:41 10° NE
COSMOS 2428 2.8 09:07:36 10° SSW 09:13:16 81° ESE 09:18:58 10° NNE
Cosmos 1500 Rocket 4.3 09:08:59 10° S 09:13:20 56° E 09:17:43 10° NNE
STARLINK-30 4.3 09:10:36 10° W 09:13:57 36° NNW 09:17:18 10° NE
FALCON 9 DEB 3.1 09:11:24 10° NW 09:14:52 86° SW 09:18:20 10° SE
STARLINK-72 4.4 09:12:14 10° W 09:15:34 35° NNW 09:18:54 10° NE
Cosmos 1818 4.0 09:11:22 10° SSW 09:16:42 62° ESE 09:22:04 10° NE
Cosmos 1821 Rocket 4.3 09:10:40 10° S 09:17:00 77° E 09:23:18 10° N
Cosmos 1408 Rocket 3.6 09:13:13 10° SSW 09:17:28 60° W 09:21:44 10° N
STARLINK-1026 4.2 09:13:43 10° WSW 09:17:45 51° NNW 09:21:49 10° NE
STARLINK-1013 4.3 09:18:45 10° WSW 09:22:46 48° NNW 09:26:47 10° NE
Cosmos 1782 3.5 09:19:58 10° N 09:23:57 60° E 09:27:53 10° SSE
Cosmos 1727 Rocket 4.1 09:17:59 10° NNW 09:24:02 59° W 09:30:04 10° S
PAYLOAD A 4.2 09:19:48 10° NNE 09:24:33 71° ESE 09:29:25 10° S
SL-4 R/B 3.3 09:21:09 10° WNW 09:24:56 24° SW 09:28:34 10° S
Iridium 4 Rocket 4.0 09:20:45 10° S 09:25:40 68° E 09:31:06 10° N
